Content
SEND FEEDBACK

Daily
Averages
Monthly
Summary
United States of America

VERIBEST, TEXAS


Home > North America > United States > Texas
Elevation: 1908 feet     Latitude: 31 28N     Longitude: 100 29W

WEATHER
 
SELECT A DAY
Number of Records: 190,477;   Date Range: 1/1/95 - 11/22/14
 
SHARE

PRINT THIS DATA

[ ← Previous Day ]
WEATHER ALMANAC - JANUARY 31, 2013
[ Next Day → ]
[ °C ]   °F
Weather ElementAverageHighLow
Temperature49.6 °F68 °F (2:51 pm)28.9 °F (4:51 am)
Dewpoint18 °F25 °F (9:51 pm)14 °F (2:51 am)
Humidity32.6 %56 % (4:51 am)15 % (1:51 pm)
Barometer30.20 in30.25 in (10:51 am)30.12 in (3:51 pm)
Wind Speed10 mph25.3 mph (9:51 am)
Wind Gust31.1 mph (9:51 am)
Weather ElementAverage
Visibility10 mi
Wind DirectionSSW (191.3 °)

Weather ElementTotal
Precipitation---
Heating Degree Days16.6 (Base 65)
Averaged from 24 records on January 31, 2013
WEATHER CONDITIONS BREAKOUT
WIND DIRECTION BREAKOUT
WEATHER BY HOUR - JANUARY 31, 2013
[ °C ]   °F
Local TimeTemperatureDewpointHumidityBarometerVisibilityWind DirectionWind SpeedGust SpeedPrecipitationEventsConditions
1:51 AM30.9 °F15.1 °F52 %30.20 in10.0 miSouth (190°)5.8 mphClear
2:51 AM32.0 °F14.0 °F48 %30.19 in10.0 miSW (230°)5.8 mphClear
3:51 AM32.0 °F14.0 °F48 %30.18 in10.0 miCalmClear
4:51 AM28.9 °F15.1 °F56 %30.19 in10.0 miSW (220°)6.9 mphClear
5:51 AM28.9 °F15.1 °F56 %30.19 in10.0 miSSW (200°)8.1 mphClear
6:51 AM33.1 °F15.1 °F48 %30.21 in10.0 miCalmClear
7:51 AM32.0 °F17.1 °F54 %30.23 in10.0 miSW (220°)8.1 mphClear
8:51 AM46.0 °F16.0 °F30 %30.23 in10.0 miSW (230°)15.0 mphClear
9:51 AM54.0 °F15.1 °F22 %30.24 in10.0 miSW (220°)25.3 mph31.1 mphClear
10:51 AM57.9 °F17.1 °F20 %30.25 in10.0 miSW (230°)20.7 mph28.8 mphClear
11:51 AM61.0 °F18.0 °F19 %30.22 in10.0 miSW (220°)18.4 mph23.0 mphClear
12:51 PM64.0 °F17.1 °F16 %30.19 in10.0 miSW (230°)16.1 mph24.2 mphClear
1:51 PM66.9 °F17.1 °F15 %30.16 in10.0 miWest (280°)18.4 mph24.2 mphClear
1:59 PM66.2 °F17.6 °F15 %30.15 in10.0 miWSW (240°)18.4 mph26.5 mphClear
2:51 PM68.0 °F19.0 °F15 %30.13 in10.0 miWSW (250°)17.3 mph21.9 mphClear
3:51 PM68.0 °F18.0 °F15 %30.12 in10.0 miWest (270°)12.7 mph21.9 mphClear
4:51 PM66.9 °F17.1 °F15 %30.14 in10.0 miWSW (250°)13.8 mphClear
5:51 PM64.0 °F19.9 °F18 %30.16 in10.0 miWest (260°)5.8 mphClear
6:51 PM54.0 °F23.0 °F30 %30.18 in10.0 miWSW (240°)6.9 mphClear
7:51 PM53.1 °F21.9 °F30 %30.22 in10.0 miCalmClear
8:51 PM50.0 °F23.0 °F35 %30.23 in10.0 miSSW (200°)3.5 mphClear
9:51 PM43.0 °F25.0 °F49 %30.25 in10.0 miSouth (190°)6.9 mphClear
10:51 PM45.0 °F19.9 °F37 %30.24 in10.0 miSW (220°)5.8 mphClear
11:51 PM44.1 °F21.0 °F40 %30.24 in10.0 miCalmClear
Hourly data recorded from KSJT, located miles away from Veribest, Texas







STORIES FROM OUR PARTNERS